Theta_e
349 350 366 363 361 360 359 358 359 360 361 362 363 363 363 362 363 363 362 361 361 362 362 361 360 360 358 357 357 356 357 354 352 351 350 349 346 345 343 342 341 336 341
347 360 365 365 361 360 359 359 358 360 360 361 362 362 362 362 363 362 361 361 362 360 361 362 361 360 360 358 357 356 355 354 353 352 351 349 348 346 344 342 342 338 344
345 360 363 365 362 360 359 359 359 359 360 360 361 362 361 362 362 361 361 361 362 360 359 361 362 362 361 359 357 357 356 354 352 350 349 342 341 346 344 343 343 342 341
347 357 361 365 364 361 360 359 359 359 359 359 360 361 361 361 362 362 362 362 361 358 358 359 361 361 361 361 359 357 356 355 352 350 342 342 342 345 343 343 343 343 341
349 356 360 365 364 361 360 359 360 359 359 359 359 360 360 360 361 361 362 362 361 358 358 359 360 360 360 360 359 359 359 356 355 347 340 338 338 342 343 343 343 342 341
351 356 360 365 364 362 360 359 360 359 359 359 358 358 359 359 358 359 361 361 361 360 358 359 359 359 359 358 358 358 357 355 352 345 340 343 337 344 342 342 343 343 341
347 354 360 364 364 363 361 359 360 360 360 360 358 358 359 359 359 359 360 362 362 361 360 359 360 359 359 359 358 357 354 350 341 337 339 341 338 347 344 343 343 343 341
339 352 357 363 363 362 362 361 360 361 361 361 360 360 360 360 360 360 359 360 362 362 362 361 360 359 358 357 357 354 352 349 340 335 339 338 345 347 344 343 343 342 342
338 351 353 358 361 361 362 360 360 359 359 360 360 360 360 360 359 360 360 359 360 360 360 360 360 359 358 357 356 354 352 349 334 337 340 337 348 347 345 343 343 343 342
348 350 351 353 357 356 357 361 361 360 359 359 359 359 360 360 359 359 358 359 359 359 359 359 359 359 357 356 355 354 352 349 335 335 338 338 348 347 346 344 343 343 342
347 347 348 352 351 352 354 357 358 360 360 360 359 359 356 352 353 355 357 357 360 360 359 358 357 358 357 356 355 354 351 338 335 332 338 343 349 348 347 345 343 343 342
330 330 332 345 346 346 354 352 348 351 355 354 353 352 351 350 349 353 355 358 359 359 359 358 357 357 356 346 341 346 340 335 332 330 335 347 349 350 348 346 344 343 343
328 329 329 341 332 334 344 345 341 337 345 349 351 351 351 352 348 349 349 349 351 355 353 355 352 351 346 343 340 337 335 335 334 333 334 347 351 351 350 347 345 344 343
322 324 327 330 330 330 330 330 329 329 329 338 344 346 347 347 346 345 346 346 345 347 348 348 349 347 345 344 341 338 336 333 333 333 336 349 352 352 351 348 346 344 343
320 322 324 326 325 326 326 326 326 326 327 327 328 336 343 345 344 344 344 342 344 345 347 346 346 346 345 344 343 340 339 335 332 331 336 350 352 352 353 350 347 345 344
320 320 321 319 320 320 320 319 321 324 325 324 324 326 330 340 342 342 341 339 340 344 346 347 344 344 343 343 342 341 340 338 334 337 341 346 352 351 352 350 348 346 345
319 319 317 318 318 316 316 318 319 317 319 319 321 323 327 329 331 335 342 342 343 342 343 343 343 339 338 339 339 340 340 339 335 341 343 346 349 351 351 351 349 346 346
318 317 318 322 316 315 315 315 317 315 314 316 317 319 324 322 321 326 334 343 345 341 340 339 337 337 336 335 335 338 341 338 335 341 343 344 346 346 350 350 349 347 346
316 313 315 317 316 314 314 316 316 314 315 316 316 317 321 321 322 323 323 331 342 339 335 335 336 335 334 334 335 337 335 336 335 341 341 342 343 344 344 348 348 347 346
316 313 314 316 316 314 314 314 314 312 313 315 314 317 319 319 322 321 321 325 332 336 333 334 334 333 335 334 339 338 332 332 333 336 341 342 343 344 341 340 344 343 346
316 314 314 314 315 313 312 310 312 310 311 312 313 316 317 318 319 319 321 324 328 332 335 334 333 331 329 336 333 328 331 330 329 330 331 341 342 343 340 339 340 340 342
314 314 315 314 315 313 313 314 313 311 311 313 313 314 316 317 318 320 320 321 323 324 330 333 331 327 328 333 329 324 320 325 327 326 327 330 338 341 338 338 339 336 330
312 313 314 314 314 314 314 312 311 310 309 309 310 312 314 316 319 319 319 318 318 320 322 326 329 326 325 328 331 324 316 316 322 322 320 320 322 331 337 336 329 326 324
311 313 312 313 313 316 313 311 310 308 307 308 310 312 312 314 317 320 318 318 316 316 318 321 327 325 326 326 325 330 325 322 318 315 320 318 320 319 321 324 324 321 321
314 314 314 313 312 312 312 313 310 308 309 310 311 309 308 311 314 316 316 316 315 316 315 316 318 320 325 325 324 324 322 323 318 316 314 316 318 321 319 319 317 318 318
314 314 316 317 317 315 314 313 312 311 310 308 309 306 307 309 312 312 315 313 314 314 314 314 315 316 320 326 328 328 325 320 320 315 315 313 316 313 316 316 316 316 315
Wind_Speed
4 4 5 2 1 10 15 14 13 13 13 13 14 14 15 15 15 14 14 12 11 11 12 13 14 15 15 15 15 15 15 15 16 16 16 16 16 17 17 17 18 11 17
4 4 3 1 1 5 11 14 13 12 12 12 12 11 12 13 14 14 12 11 10 11 12 12 13 14 14 14 14 14 14 14 14 15 15 15 15 16 17 17 18 13 16
7 4 3 5 3 3 7 11 12 12 11 12 11 10 10 11 12 12 11 11 10 11 11 11 12 12 12 13 12 13 12 12 12 12 13 5 6 14 15 17 18 16 15
1 4 2 6 7 8 7 9 10 11 11 11 10 11 11 10 10 10 9 8 8 10 9 10 11 11 11 11 11 10 9 9 10 11 5 4 7 11 13 15 18 16 14
1 1 2 6 8 8 9 9 10 10 10 11 9 9 9 10 9 9 9 9 9 9 8 8 9 9 10 9 9 7 7 6 6 8 5 5 4 7 12 13 15 15 14
1 3 2 6 8 10 10 9 9 10 10 10 11 10 9 8 8 7 7 7 7 8 8 6 6 6 8 8 7 5 4 3 1 4 6 7 5 10 10 12 14 15 14
2 2 2 4 7 10 11 10 9 10 10 9 10 10 10 9 8 7 7 7 7 7 7 6 5 5 5 6 5 5 4 4 2 4 5 6 6 11 11 12 13 15 15
4 4 1 6 5 5 9 11 10 10 9 9 9 8 8 8 8 7 6 6 6 6 5 5 6 6 5 5 5 5 5 5 1 2 6 5 9 12 12 12 12 13 15
3 8 1 2 1 2 2 3 4 6 9 11 11 11 11 10 9 9 8 8 7 7 6 7 7 7 7 6 5 5 5 7 1 3 7 5 14 15 14 13 12 12 14
7 6 5 2 1 2 3 2 3 5 6 6 7 8 9 10 10 10 10 10 9 9 8 8 8 8 8 9 8 5 5 7 2 3 3 4 16 15 14 13 12 11 12
5 5 4 3 4 3 1 0 3 5 5 6 7 8 6 4 4 7 8 11 11 11 10 10 10 9 10 10 10 6 6 3 4 3 3 10 16 16 15 14 13 11 11
4 5 1 5 4 2 2 3 2 3 4 4 3 4 4 5 4 6 8 11 12 12 11 11 11 11 10 4 4 8 2 4 4 4 4 14 17 17 16 16 14 13 12
7 3 3 10 6 7 4 3 2 2 2 3 4 5 4 4 3 3 3 3 4 9 5 7 6 5 5 4 4 4 3 5 3 3 6 17 20 20 19 18 17 15 14
8 7 5 9 8 7 4 3 3 2 3 3 4 6 4 3 3 4 4 3 4 3 4 5 4 5 5 6 6 6 5 4 3 4 6 15 20 21 21 20 18 17 16
6 5 5 6 6 6 5 3 3 4 3 4 4 5 3 4 5 3 4 4 4 4 5 6 6 5 6 6 6 7 8 6 6 4 3 16 21 21 20 21 19 18 16
8 7 6 6 7 7 5 5 5 3 3 4 5 5 6 3 4 4 5 5 5 5 6 6 6 6 6 5 7 8 9 7 6 5 4 7 21 22 21 21 20 19 17
9 8 8 8 6 7 7 5 5 4 4 5 4 6 7 7 6 7 5 5 7 5 6 4 5 4 4 3 7 6 6 8 6 6 5 5 11 19 20 20 19 19 19
12 12 9 7 8 8 7 6 5 4 4 3 3 4 6 7 6 5 6 5 6 4 4 3 3 3 3 3 4 6 7 5 5 7 7 7 8 9 15 19 18 18 18
8 8 8 7 7 7 7 6 5 6 5 4 4 4 6 6 7 5 3 5 7 4 4 3 3 3 2 4 4 6 3 3 5 4 5 6 8 9 7 16 17 17 18
7 8 8 6 7 6 4 4 3 4 4 4 4 4 5 5 7 7 7 7 7 3 3 3 5 3 4 6 4 3 2 3 3 1 4 5 5 7 6 6 9 9 17
12 7 5 6 2 2 2 1 3 2 2 2 3 3 3 3 5 6 6 8 9 8 4 6 4 6 4 3 1 1 2 2 2 2 3 3 7 8 8 7 5 5 5
6 6 4 3 1 2 1 2 3 2 2 2 2 3 4 4 4 4 4 6 8 8 10 7 4 2 3 4 3 2 2 1 1 2 3 3 3 5 5 7 7 7 7
7 6 6 6 6 5 3 1 3 2 3 1 2 3 4 5 5 5 6 4 5 6 7 8 8 5 3 2 6 4 0 4 1 2 4 4 5 1 4 6 6 10 11
6 6 6 6 7 6 7 6 5 1 1 3 3 1 4 3 3 3 5 6 6 3 5 6 7 6 3 8 2 4 3 4 4 2 1 1 3 4 5 4 3 8 11
6 4 2 2 3 4 3 1 2 5 3 3 2 4 3 2 3 3 2 4 6 4 4 5 6 5 4 6 5 3 1 1 2 3 4 2 1 1 3 5 5 5 6
4 9 10 9 8 8 8 6 5 7 7 5 4 4 4 3 3 3 3 2 5 5 6 5 5 5 6 7 8 6 5 4 4 4 2 0 1 2 2 4 7 8 7
Wind_Direction
59 349 346 329 13 104 110 110 108 103 100 100 102 108 114 119 120 117 115 114 114 112 109 106 104 103 103 101 100 99 98 96 95 94 94 93 93 95 94 92 89 84 86
104 63 357 56 287 105 108 118 121 114 112 111 110 110 113 119 116 115 116 117 119 119 116 112 111 110 111 110 108 108 106 102 99 99 99 96 97 99 100 98 96 92 89
94 113 127 165 181 125 115 121 123 120 116 114 112 109 108 110 114 118 122 127 128 126 123 119 116 115 113 113 114 117 118 111 110 107 105 97 94 99 102 105 102 96 90
72 145 173 181 172 152 137 132 130 129 127 124 125 123 119 117 117 118 116 121 128 134 136 132 127 123 119 115 116 121 128 131 125 112 104 104 108 108 108 112 108 102 96
5 153 172 188 176 164 147 148 141 140 139 137 139 136 133 133 134 138 140 143 150 154 153 149 140 134 130 128 124 127 141 162 175 133 131 116 107 118 124 121 113 111 105
248 199 211 200 187 161 158 157 155 157 155 153 154 155 156 150 148 155 157 159 166 168 167 166 159 152 145 145 143 148 167 182 171 125 152 151 147 142 137 136 128 119 112
230 333 319 240 217 166 161 167 172 170 167 166 173 172 174 171 165 176 180 177 183 183 184 185 195 190 173 168 169 176 196 231 164 157 166 155 166 152 153 147 138 130 121
127 136 245 218 232 202 174 175 178 178 183 182 183 188 191 187 182 185 198 204 206 204 205 207 216 230 226 207 203 207 225 245 280 171 171 161 170 165 163 159 153 142 128
91 126 105 338 298 270 322 300 264 212 193 189 191 191 196 199 199 197 204 211 219 223 228 232 236 240 247 246 231 241 242 262 234 280 180 170 177 175 171 170 169 155 135
51 95 133 135 80 68 48 9 341 319 298 274 249 222 213 205 207 209 206 216 217 225 228 239 244 254 256 257 248 227 239 244 211 221 199 183 183 182 177 178 177 168 147
97 107 146 165 110 57 34 65 34 332 296 296 297 288 272 280 254 234 230 225 226 226 230 234 239 243 250 259 267 240 244 200 223 210 192 202 191 190 183 185 183 180 160
122 95 33 151 127 155 302 60 22 335 289 264 260 282 279 268 264 254 247 247 240 235 234 235 240 242 248 250 268 283 167 195 227 208 197 207 200 199 191 189 187 187 172
154 118 95 129 108 121 135 121 58 334 299 272 269 254 249 259 250 255 258 249 240 243 235 232 238 238 231 237 257 267 198 199 222 228 220 215 199 200 196 194 191 192 184
164 154 133 135 147 136 124 122 121 63 18 4 304 269 239 255 260 257 257 255 250 249 248 232 225 223 230 230 239 263 247 221 227 241 224 211 200 198 197 198 195 194 191
148 150 159 138 125 119 103 91 73 43 25 351 351 336 264 253 259 255 255 243 238 213 227 239 230 220 226 228 230 236 256 236 227 230 212 211 197 197 197 200 198 198 195
158 171 174 142 134 132 113 102 84 66 48 30 4 354 2 314 280 262 256 248 248 230 228 232 236 233 228 220 237 231 244 242 225 224 214 211 196 195 197 199 200 202 198
168 162 164 136 128 111 113 106 85 61 63 40 21 10 6 8 353 328 278 263 255 242 237 236 247 265 279 253 251 239 239 243 215 196 193 199 198 205 198 198 201 202 200
165 172 172 150 146 132 115 101 112 111 83 66 56 21 22 14 11 342 339 300 278 235 207 209 208 265 256 247 259 259 250 239 225 195 190 184 195 199 202 202 204 205 204
166 143 133 130 132 123 119 115 97 74 66 70 39 27 22 4 357 357 332 311 311 244 229 207 183 166 253 270 271 279 308 264 227 192 198 201 209 199 194 203 201 202 208
162 134 128 130 131 116 96 88 74 83 80 65 64 55 27 354 353 353 345 346 333 308 245 205 213 192 204 245 238 260 38 11 41 355 213 193 198 202 209 186 193 204 208
4 53 109 122 138 102 61 90 66 70 49 39 39 61 69 5 356 1 2 356 355 351 304 227 222 208 232 238 39 348 48 58 30 17 330 231 192 203 191 184 176 175 210
25 13 4 18 56 348 320 253 111 125 3 335 1 348 24 10 355 39 25 1 360 351 350 324 278 269 234 172 221 209 261 270 81 37 4 332 215 185 189 178 176 136 116
39 16 5 343 342 315 301 290 72 71 80 17 347 322 352 354 352 19 14 15 359 4 345 338 326 298 276 256 196 182 316 235 115 6 45 10 6 341 184 160 129 130 128
30 58 37 18 351 314 332 330 35 349 292 218 174 250 305 339 325 5 5 355 352 2 356 339 333 300 305 277 327 208 228 160 183 304 142 93 49 19 42 55 77 130 125
112 80 53 342 264 270 287 7 345 310 284 304 314 298 311 283 264 318 22 343 338 334 315 313 323 323 286 272 264 262 163 112 103 134 222 175 122 62 79 99 89 94 108
189 171 186 188 232 235 253 279 239 249 254 267 269 287 297 305 304 321 347 337 311 305 314 303 290 292 299 296 289 268 235 200 189 154 137 119 135 62 64 114 133 126 126